Location: Bonny Doon Airfield
(37.0704°N, 122.1252°W)
Time: 03:02:30
(UTC-07:00)

Vanguard 2 Rocket - Visible Passes

Search period start: 23 July 2018 00:00
Search period end: 02 August 2018 00:00
Orbit: 554 x 3327 km, 32.9° (Epoch: 22 July)

Date Brightness Start Highest point End Pass type
(mag) Time Alt. Az. Time Alt. Az. Time Alt. Az.
23 Jul 8.2 02:31:14 28° ESE 02:31:14 28° ESE 02:35:25 10° E visible
23 Jul 7.6 04:37:03 19° WSW 04:41:48 67° S 04:52:45 10° E visible
24 Jul 7.0 03:41:00 51° SW 03:42:13 61° S 03:51:03 10° E visible
25 Jul 7.8 02:44:59 35° ESE 02:44:59 35° ESE 02:49:50 10° E visible
25 Jul 7.6 04:50:48 14° W 04:56:08 62° S 05:06:54 10° ESE visible
26 Jul 9.3 01:49:00 10° E 01:49:00 10° E 01:49:04 10° E visible
26 Jul 7.0 03:54:50 44° SW 03:56:32 62° S 04:05:19 10° ESE visible
27 Jul 7.5 02:58:55 41° ESE 02:58:55 41° ESE 03:04:11 10° E visible
27 Jul 7.7 05:04:44 11° W 05:10:29 53° S 05:20:50 10° ESE visible
28 Jul 9.1 02:03:02 12° E 02:03:02 12° E 02:03:31 10° E visible
28 Jul 7.1 04:08:53 38° WSW 04:10:54 56° S 04:19:28 10° ESE visible
29 Jul 7.4 03:13:05 43° SE 03:13:05 43° SE 03:18:27 10° ESE visible
29 Jul 8.0 05:19:07 10° W 05:24:51 41° SSW 05:34:25 10° SE visible
30 Jul 9.1 02:17:21 12° E 02:17:21 12° E 02:17:52 10° E visible
30 Jul 7.3 04:23:12 33° WSW 04:25:15 45° S 04:33:22 10° ESE visible
31 Jul 7.5 03:27:33 38° SE 03:27:33 38° SE 03:32:35 10° ESE visible
31 Jul 8.4 05:33:57 10° WSW 05:39:16 29° SSW 05:47:28 10° SE visible
01 Aug 9.2 02:32:00 11° ESE 02:32:00 11° ESE 02:32:09 10° ESE visible
01 Aug 7.6 04:37:51 27° SW 04:39:38 33° SSW 04:46:55 10° SE visible
